Regional Weather Roundup
Issued by NWS

Home | Current Version | Previous Version | Text Only | Print | Product List | Glossary Off
Versions: 1 2 3 4 5 6 7 8 9 10 11 12 13 14 15 16 17 18 19 20 21 22 23 24 25 26 27 28 29 30 31 32 33 34 35 36 37 38 39 40 41 42 43 44 45 46 47 48 49 50

000
ASUS45 KBOU 280507
RWRCO

WEATHER ROUNDUP FOR COLORADO
NATIONAL WEATHER SERVICE DENVER/BOULDER CO
1000 PM MST THU NOV 27 2014

NOTE: "FAIR" INDICATES FEW OR NO CLOUDS BELOW 12000 FEET WITH NO
SIGNIFICANT WEATHER AND/OR OBSTRUCTIONS TO VISIBILITY.

COZ001>005-013-030-031-280600-
...NORTHWEST COLORADO...

CITY           SKY/WX    TMP DP  RH WIND       PRES   REMARKS
CRAIG          MOCLDY    30  25  81 CALM      30.26S
HAYDEN         MOCLDY    32  21  64 SE8       30.26S WCI  25
MEEKER         PTCLDY    32  22  66 NE5       30.27F WCI  27
MOUNT WERNER   NOT AVBL
STEAMBOAT SPGS MOCLDY    30  28  94 CALM      30.27F
WALDEN         PTCLDY    37  18  44 S14G20    30.27S
$$

COZ006>008-011-280600-
...WEST CENTRAL VALLEYS...

CITY           SKY/WX    TMP DP  RH WIND       PRES   REMARKS
GRAND JUNCTION PTCLDY    38  25  59 E7        30.29S
MONTROSE       CLEAR     29  23  78 SE8       30.34S WCI  21
EAGLE          PTCLDY    30  27  86 E7        30.35S WCI  23
RIFLE          MOCLDY    32  26  78 CALM      30.32F
DELTA          CLEAR     36  25  65 CALM      30.32S
NUCLA          CLEAR     36  23  60 SE9       30.35S
$$

COZ017>023-064>068-280600-
...SOUTHWEST COLORADO...

CITY           SKY/WX    TMP DP  RH WIND       PRES   REMARKS
DURANGO        PTCLDY    30  21  69 N7        30.36F WCI  23
CORTEZ         CLEAR     24  17  74 E5        30.34F WCI  18
PAGOSA SPRINGS PTCLDY    29  20  69 CALM      30.40F
TELLURIDE      PTCLDY    35  19  51 SE6       30.46S WCI  30
WOLF CREEK PAS CLEAR     28  14  54 MISG      30.50F
$$

COZ009-010-012-014-032>034-037-058>063-280600-
...CENTRAL COLORADO...

CITY           SKY/WX    TMP DP  RH WIND       PRES   REMARKS
ASPEN          PTCLDY    30  21  69 SW6       30.34F WCI  24
BUENA VISTA    CLEAR     44  11  26 NW8       30.29F
COPPER MTN     MOCLDY    34  10  37 SW10      30.46F WCI  26
BERTHOUD PASS  NOT AVBL
COTTONWOOD PAS CLEAR     45   3  18 W24G38    30.32F
GUNNISON       CLEAR     19  16  86 CALM      30.44S
KREMMLING      MOCLDY    32  23  69 E5        30.33S WCI  27
LEADVILLE      PTCLDY    35  10  35 NE13G20   30.37F WCI  26
MONARCH PASS   CLEAR     28  12  50 W40G48    30.53F WCI  11
SALIDA         CLEAR     47  14  27 SW20G26   30.33F
SUNLIGHT       MOCLDY    30  23  74 CALM      30.44S
WILKERSON PASS PTCLDY    34   5  29 MISG      30.31S
$$

COZ069>075-280600-
...SAN LUIS VALLEY/SANGRE DE CRISTO MOUNTAINS...

CITY           SKY/WX    TMP DP  RH WIND       PRES   REMARKS
ALAMOSA        PTCLDY    18  11  74 NE9       30.35R WCI   7
LA VETA PASS   PTCLDY    36  18  48 S18G29    30.36S
SAGUACHE       PTCLDY    28  19  69 NW7       30.36F WCI  21
$$

COZ035-036-038>040-280600-
...NORTHERN COLORADO FRONT RANGE...

CITY           SKY/WX    TMP DP  RH WIND       PRES   REMARKS
DENVER INTL AP PTCLDY    57  18  21 S5        30.09S
DMNS CITY PARK   N/A     51  16  25 SW5       30.07F
AURORA         PTCLDY    54  15  21 S5        30.11F
FRONT RANGE AP CLEAR     45  21  39 SW8       30.10F
ERIE MUNI ARPT CLEAR     48  19  31 E7        30.05F
BOULDER MUN AP CLEAR     50  21  32 NE6       30.06R
CENTENNIAL     PTCLDY    43  19  38 SE6       30.11F
BROOMFIELD     MOCLDY    55  16  21 SW9G18    30.08F
FORT COLLINS   CLEAR     45  19  36 W7        30.07S
LONGMONT       CLEAR     60  15  17 SW5       30.06S
$$

COZ041-046-047-076>085-087-088-280600-
...PIKES PEAK/PALMER DIVIDE AND SOUTHERN FOOTHILLS...

CITY           SKY/WX    TMP DP  RH WIND       PRES   REMARKS
COLO. SPRINGS  MOCLDY    47  15  27 CALM      30.17F
A. F. ACADEMY  PTCLDY    46  13  26 W9        30.17S
ELLICOTT       NOT AVBL
FALCON         NOT AVBL
FORT CARSON    PTCLDY    49  16  27 W8        30.15F
LIMON          PTCLDY    27  18  69 N5        30.12S WCI  22
MONUMENT HILL  PTCLDY    36  18  48 SW9       30.17F
TRINIDAD       MOCLDY    44  22  41 SW17      30.20S
$$

COZ042>045-048>051-090-091-280600-
...NORTHEAST COLORADO...

CITY           SKY/WX    TMP DP  RH WIND       PRES   REMARKS
GREELEY ARPT   CLEAR     36  19  51 CALM      30.05F
AKRON          CLEAR     44  25  47 SW14      30.05S
BURLINGTON     CLEAR     40  24  53 W12       30.06F
WRAY           CLEAR     35  28  74 SW9       30.03S WCI  28
STERLING       CLEAR     39  30  70 S3        30.03S
HOLYOKE        CLEAR     34  28  80 W9        30.02F WCI  26
FORT MORGAN    CLEAR     38  24  58 W5        30.06S
$$

COZ086-089-092>099-280600-
...SOUTHEAST COLORADO...

CITY           SKY/WX    TMP DP  RH WIND       PRES   REMARKS
PUEBLO         MOCLDY    44  22  41 W13       30.12S
LA JUNTA       PTCLDY    39  24  55 SW9       30.09F
LAMAR          MOCLDY    31  23  72 NW5       30.06S WCI  26
SPRINGFIELD      N/A     43  19  38 W5        30.11S
$$



USA.gov is the U.S. government's official web portal to all federal, state and local government web resources and services.